Starlink 32625

operational
NORAD ID: 62154 Int'l Des: 2024-224 Owner: SPXS Country: US Constellation: starlink
LEOCIRCULAR

关于 Starlink 32625

正在加载描述...

实时位置

正在加载3D地球...

即将过境

高度历史

Altitude vs Time

uPlot chart will show altitude changes over time

两行轨道根数

1 62154U 24224R 25306.29795550 .00020072 00000-0 73679-3 0 9996
2 62154 43.0022 157.8411 0001562 270.3482 89.7191 15.27586379 52889
Epoch: Nov 2, 2025 • Age: 41 hours

当前状态

高度 489.8 km
速度 7.62 km/s
星下点 -29.76°S, 71°E
发射日期 Nov 30, 2024
运行时间 0.9 years
类型 internet

技术详情

分类 Payload
质量 730.00 kg
干质量 700.00 kg
总质量 730.00 kg
长度 0.30 m
直径 4.10 m
跨度 29.00 m
形状 Box + pan
制造商 SPXS
平台类型 Starlink V2M
阶段状态 In Orbit
所有者/国家 SPXS/US

大型星座

Loading constellations...